Find Starlink 4320

NORAD ID: 53059 Int'l Des: 2022-077 Owner: SPXS Country: US Constellation: starlink operational
LEOCIRCULARRETROGRADESSO

リアルタイム位置

3D地球を読み込み中...

Starlink 4320について

説明を読み込み中...

次回通過

Passes for default location (London). Set your location on the main map for personalized predictions.

高度履歴

Loading altitude history...

軌道要素

1 53059U 22077S 26124.49727316 -.00001626 00000-0 -10859-3 0 9997
2 53059 97.5379 305.0137 0001800 74.0270 286.1155 15.05644844209305
Epoch: May 4, 2026 • Age: 14 hours

現在のステータス

高度 576.9 km
速度 7.57 km/s
衛星直下点 -70.81°S, 75.31°E
打ち上げ日 Jul 11, 2022
運用期間 3.8 years
タイプ internet

技術仕様

分類 Payload
質量 297.00 kg
乾燥質量 275.00 kg
総質量 297.00 kg
長さ 0.20 m
直径 2.80 m
スパン 9.00 m
形状 Box + pan
製造者 SPXS
バスタイプ Starlink
フェーズステータス In Orbit
所有者/国 SPXS/US

Most Searched